{"data":{"norad_id":63886,"intl_designator":"2025-094Y","name":"STARLINK-33885","alt_names":[],"object_type":"PAYLOAD","status":"ACTIVE","operator":null,"country":"US","launch_date":"2025-05-10","launch_site_code":"AFWTR","launch_vehicle":null,"mission":null,"orbit_class":"UNKNOWN","rcs_meters":null,"size_class":null,"mass_kg":null,"dimensions":null,"purposes":["comms"],"wikipedia_slug":null,"has_3d_model":false,"image_url":null,"decayed_at":null,"tle_current":{"epoch":"2026-05-25T02:40:51.290400Z","epoch_age_seconds":59340,"freshness":"FRESH","line1":"1 63886U 25094Y   26145.11170475  .00006896  00000+0  58481-3 0  9992","line2":"2 63886  70.0018  41.6417 0002696 271.8027  88.2824 14.98353561 58653","mean_motion":14.98353561,"eccentricity":0.0002696,"inclination_deg":70.0018,"raan_deg":41.6417,"arg_perigee_deg":271.8027,"mean_anomaly_deg":88.2824,"bstar":0.00058481,"rev_number":5865,"period_min":96.105487882242,"perigee_km":570.10927908974,"apogee_km":573.8567838107,"semimajor_km":6950.1200314502,"source":"CELESTRAK","updated_at":"2026-05-25T13:38:20.173886Z"}}}